Starlink 2704

operational
NORAD ID: 48643 Int'l Des: 2021-044 Owner: SPXS Country: US Constellation: starlink
LEOCIRCULARSTARLINK_TYPE

About Starlink 2704

Description loading...

Live Position

Loading 3D Globe...

Upcoming Passes

Altitude History

Altitude vs Time

uPlot chart will show altitude changes over time

Two-Line Element Set

1 48643U 21044F 25352.10514394 .00001497 00000-0 11935-3 0 9993
2 48643 53.0551 127.8582 0001175 89.1483 270.9640 15.06399791251417
Epoch: Dec 18, 2025 • Age: 13 hours

Current Status

Altitude 552.5 km
Velocity 7.59 km/s
Sub-Earth Point 51.10°N, 85.88°W
Launch Date May 26, 2021
Age 4.5 years
Type internet

Technical Details

Classification Payload
Mass 260.00 kg
Dry Mass 248.00 kg
Total Mass 260.00 kg
Length 0.20 m
Diameter 2.80 m
Span 9.00 m
Shape Box + pan
Manufacturer SPXS
Bus Type Starlink
Phase Status In Orbit
Owner/State SPXS/US

Large Constellations

Loading constellations...